Regional Weather Roundup
Issued by NWS

Home | Current Version | Previous Version | Graphics & Text | Print | Product List | Glossary On
Versions: 1 2 3 4 5 6 7 8 9 10 11 12 13 14 15 16 17 18 19 20 21 22 23 24 25 26 27 28 29 30 31 32 33 34 35 36 37 38 39 40 41 42 43 44 45 46 47 48 49 50
000
ASUS43 KOAX 292302
RWRNE

WEATHER ROUNDUP FOR NEBRASKA
NATIONAL WEATHER SERVICE OMAHA NE
600 PM CDT MON MAY 29 2017

NOTES: SATELLITE DATA IS BEING USED TO AUGMENT CLOUD COVER ABOVE
       12000 FEET.
       "FAIR" INDICATES FEW OR NO CLOUDS BELOW 12,000 FEET WITH NO
       SIGNIFICANT WEATHER AND/OR OBSTRUCTIONS TO VISIBILITY.

  * THESE STATIONS DO NOT REPORT WEATHER SUCH AS RAIN...SNOW OR FOG.

NEZ001>004-019>022-054>056-300000-
NEBRASKA PANHANDLE

CITY           SKY/WX    TMP DP  RH WIND       PRES   REMARKS
SCOTTSBLUFF    SUNNY     73  32  22 N22G29    30.13F
ALLIANCE       SUNNY     70  33  25 NW17G24   30.11F
CHADRON        SUNNY     70  44  39 NE10      30.10F
GORDON         FAIR      67  35  30 N12G17    30.11F
KIMBALL        MOSUNNY   69  36  29 N12G18    30.17F
SIDNEY         CLOUDY    70  39  32 NW12      30.14F
$$

NEZ057>060-069>072-079>082-300000-
SOUTHWEST NEBRASKA

CITY           SKY/WX    TMP DP  RH WIND       PRES   REMARKS
NORTH PLATTE   SUNNY     74  37  26 N6G20     30.07F
IMPERIAL       MOSUNNY   75  37  25 N9        30.09F
LEXINGTON      SUNNY     76  32  20 NW12G18   30.06F
MCCOOK         SUNNY     78  37  22 NW14      30.07F
OGALLALA       SUNNY     75  35  23 NW12      30.09F
$$

NEZ005>010-023>029-035>040-094-300000-
NORTH CENTRAL NEBRASKA

CITY           SKY/WX    TMP DP  RH WIND       PRES   REMARKS
VALENTINE      MOSUNNY   70  31  23 NW13G22   30.07F
AINSWORTH      MOSUNNY   67  38  34 N13G22    30.08S
BROKEN BOW     MOSUNNY   73  35  25 NW10      30.07F
O`NEILL        MOSUNNY   67  33  28 NW17      30.05F
ORD            SUNNY     69  35  28 NW18G24   30.05F
THEDFORD       MOSUNNY   71  36  27 NW13G20   30.09F
$$

NEZ041-046>049-061>064-073>077-083>087-300000-
SOUTH CENTRAL NEBRASKA

CITY           SKY/WX    TMP DP  RH WIND       PRES   REMARKS
GRAND ISLAND   SUNNY     73  36  25 NW22      30.06F
AURORA         MOSUNNY   74  33  22 NW20G26   30.05F
HASTINGS       MOSUNNY   74  35  24 N13G24    30.06F
HOLDREGE       SUNNY     74  31  21 NW10G20   30.06F
KEARNEY *      SUNNY     73  34  23 N12G18    30.07S
YORK           SUNNY     73  32  21 NW15      30.04F
$$

NEZ011>018-030>034-042>045-300000-
NORTHEAST NEBRASKA

CITY           SKY/WX    TMP DP  RH WIND       PRES   REMARKS
NORFOLK        MOSUNNY   69  39  33 NW18G26   30.02F
ALBION         SUNNY     70  34  26 NW18G28   30.05F
BLAIR          MOSUNNY   73  38  27 W15G23    30.00S
FREMONT        SUNNY     73  38  28 W18G29    30.01S
TEKAMAH        MOSUNNY   74  39  28 NW25G31   29.99S
WAYNE          MOSUNNY   69  41  36 NW20G25   30.02F
$$

NEZ050>053-065>068-078-088>093-300000-
SOUTHEAST NEBRASKA

CITY           SKY/WX    TMP DP  RH WIND       PRES   REMARKS
LINCOLN        SUNNY     76  36  23 NW20G25   30.03S
OMAHA EPPLEY   MOSUNNY   75  38  26 NW21G29   29.98F
BEATRICE       SUNNY     76  39  26 NW20G25   30.02S
NEBRASKA CITY  MOSUNNY   76  25  15 NW20G26   30.00S
PLATTSMOUTH    MOSUNNY   76  32  20 NW16G28   30.00S
$$

NEZ044-045-051>053-067-300000-
OMAHA AREA

CITY           SKY/WX    TMP DP  RH WIND       PRES   REMARKS
OMAHA EPPLEY   MOSUNNY   75  38  26 NW21G29   29.98F
BLAIR          MOSUNNY   73  38  27 W15G23    30.00S
FREMONT        SUNNY     73  38  28 W18G29    30.01S
MILLARD        PTSUNNY   75  41  29 NW10G21   30.00S
OFFUTT AFB     MOSUNNY   74  38  28 NW13G24   29.99S
PLATTSMOUTH    MOSUNNY   76  32  20 NW16G28   30.00S
WAHOO          FAIR      73  34  23 NW13G25   30.01S
$$



USA.gov is the U.S. government's official web portal to all federal, state and local government web resources and services.